Location: Hysolar-Haus
(48.7436°N, 9.0965°E)
Time: 09:53:59
(UTC+00:00)

ISS - Pass Details

Date: 30 January 2023
Orbit: 413 x 423 km, 51.6° (Epoch: 02 April)

Event Time Altitude Azimuth Distance (km) Brightness Sun altitude
Rises 17:28:05 0° 289° (WNW) 2,429 1.2 -11.7°
Reaches altitude 10° 17:30:13 10° 291° (WNW) 1,558 0.0 -12.1°
Maximum altitude 17:33:44 81° 19° (NNE) 451 -3.7 -12.6°
Enters shadow 17:36:03 20° 106° (ESE) 1,085 -2.2 -13.0°
